Regional Weather Roundup
Issued by NWS

Home | Current Version | Previous Version | Graphics & Text | Print | Product List | Glossary Off
Versions: 1 2 3 4 5 6 7 8 9 10 11 12 13 14 15 16 17 18 19 20 21 22 23 24 25 26 27 28 29 30 31 32 33 34 35 36 37 38 39 40 41 42 43 44 45 46 47 48 49 50

000
ASUS43 KLSX 201407
RWRMO

WEATHER SUMMARY FOR MISSOURI
NATIONAL WEATHER SERVICE SPRINGFIELD MO
900 AM CDT SUN AUG 20 2017

NOTE: "FAIR" INDICATES FEW OR NO CLOUDS BELOW 12,000 FEET WITH NO
       SIGNIFICANT WEATHER AND/OR OBSTRUCTIONS TO VISIBILITY.
       CURRENT SKY AND/OR WEATHER CONDITIONS ARE NOT AVAILABLE FOR
       CHILLICOTHE AND FARMINGTON.

MOZ001>031-035>038-043-044-053-054-201500-
...NORTHERN AND WESTERN MISSOURI...

CITY           SKY/WX    TMP DP  RH WIND       PRES   REMARKS
KANSAS CTY INT CLOUDY    70  67  90 E6        30.04R THUNDER
KANSAS C DTWN  CLOUDY    72  68  87 E6        30.02R
LEE`S SUMMIT   SUNNY     70  68  93 E8        30.05R
ST JOSEPH      PTSUNNY   70  68  93 SE9       29.96F
CHILLICOTHE      N/A     69  69 100 CALM      30.10R
KIRKSVILLE     RAIN      69  64  84 SW9       30.09R

$$
MOZ066>068-077>081-088>096-101>105-201500-
...SOUTHWEST MISSOURI...

CITY           SKY/WX    TMP DP  RH WIND       PRES   REMARKS
SPRINGFIELD    PTSUNNY   79  75  87 S9        30.06R
JOPLIN         SUNNY     84  77  79 S9        30.03R HX  94
BRANSON        MOSUNNY   82  73  74 SW6       30.08R

$$
MOZ032>034-039>042-045>050-055>058-069>072-201500-
...CENTRAL MISSOURI...

CITY           SKY/WX    TMP DP  RH WIND       PRES   REMARKS
COLUMBIA       CLOUDY    73  67  81 N7        30.05F
JEFFERSON CITY CLOUDY    74  69  85 NW6       30.06R
ROLLA          CLOUDY    77  74  90 SW9       30.06R
SEDALIA        CLOUDY    72  70  93 E6        30.04F
WHITEMAN AFB   PTSUNNY   71  71 100 E3        30.03R THUNDER
WARRENSBURG    CLOUDY    70  64  83 E8        30.03R
OSAGE BEACH    PTSUNNY   74  68  81 N9G20     30.08  THUNDER

$$
MOZ051-052-059>065-201500-
...EAST CENTRAL MISSOURI...

CITY           SKY/WX    TMP DP  RH WIND       PRES   REMARKS
ST LOUIS INTL  CLOUDY    81  73  76 SW6       30.04R
SPIRIT OF STL  CLOUDY    78  74  87 N3        30.03R
ST CHARLES     MOSUNNY   77  72  84 CALM      30.02R

$$
MOZ072>076-082>087-097>100-106>115-201500-
...SOUTH CENTRAL AND SOUTHEAST MISSOURI...

CITY           SKY/WX    TMP DP  RH WIND       PRES   REMARKS
CAPE GIRARDEAU SUNNY     79  74  84 S6        30.06R
FARMINGTON     CLOUDY    77  73  87 SE3       30.07R
POPLAR BLUFF   SUNNY     79  76  90 SE6       30.05R
WEST PLAINS    SUNNY     82  74  76 W7        30.09R

$$



USA.gov is the U.S. government's official web portal to all federal, state and local government web resources and services.